| time (UTC) | temp F | wind direction | speed knots | gust knots | rain 1hr in | rain 24hr in | rain mn in | humidity % | barometer mb |
| 20260509044522 | 54 | 180 | 5.2 | 10.4 | 0.09 | 0.35 | 0.07 | 93 | 1009.1 |
| 20260509043016 | 54 | 215 | 7.0 | 14.8 | 0.11 | 0.33 | 0.05 | 93 | 1009.3 |
| 20260509041515 | 54 | 207 | 5.2 | 10.4 | 0.10 | 0.28 | 0.01 | 94 | 1009.4 |
| 20260509040015 | 54 | 179 | 5.2 | 10.4 | 0.11 | 0.28 | 0.28 | 94 | 1009.5 |
| 20260509034514 | 54 | 203 | 4.3 | 13.9 | 0.10 | 0.26 | 0.26 | 93 | 1009.7 |
| 20260509033010 | 54 | 229 | 4.3 | 14.8 | 0.07 | 0.22 | 0.22 | 93 | 1009.8 |
| 20260509031509 | 54 | 244 | 7.0 | 13.9 | 0.05 | 0.19 | 0.19 | 93 | 1009.7 |
| 20260509030008 | 54 | 234 | 7.0 | 17.4 | 0.06 | 0.17 | 0.17 | 93 | 1009.9 |
| 20260509024509 | 54 | 210 | 8.7 | 17.4 | 0.06 | 0.16 | 0.16 | 93 | 1009.8 |
| 20260509023014 | 54 | 203 | 9.6 | 14.8 | 0.05 | 0.15 | 0.15 | 93 | 1010.1 |
| 20260509021511 | 54 | 211 | 6.1 | 13.0 | 0.04 | 0.14 | 0.14 | 93 | 1010.0 |
| 20260509020007 | 54 | 222 | 5.2 | 9.6 | 0.01 | 0.11 | 0.11 | 93 | 1010.0 |
| 20260509014506 | 54 | 210 | 4.3 | 10.4 | 0.01 | 0.10 | 0.10 | 93 | 1009.9 |
| 20260509013016 | 54 | 212 | 4.3 | 8.7 | 0.02 | 0.10 | 0.10 | 93 | 1009.9 |
| 20260509011505 | 54 | 211 | 5.2 | 7.8 | 0.04 | 0.10 | 0.10 | 93 | 1009.7 |
| 20260509010005 | 54 | 212 | 3.5 | 7.0 | 0.04 | 0.10 | 0.10 | 92 | 1009.7 |
| 20260509004505 | 54 | 229 | 1.7 | 3.5 | 0.04 | 0.09 | 0.09 | 92 | 1009.7 |
| 20260509003003 | 54 | 216 | 4.3 | 7.8 | 0.04 | 0.08 | 0.08 | 91 | 1009.5 |
| 20260509001502 | 54 | 254 | 5.2 | 8.7 | 0.03 | 0.06 | 0.06 | 90 | 1010.0 |
| 20260509000002 | 54 | 253 | 5.2 | 9.6 | 0.04 | 0.06 | 0.06 | 89 | 1009.8 |
| 20260508234505 | 54 | 262 | 4.3 | 9.6 | 0.04 | 0.05 | 0.05 | 90 | 1009.8 |
| 20260508233002 | 54 | 215 | 3.5 | 7.8 | 0.04 | 0.04 | 0.04 | 90 | 1009.6 |
| 20260508231605 | 55 | 309 | 0.9 | 2.6 | 0.03 | 0.03 | 0.03 | 89 | 1009.9 |
| 20260508224608 | 56 | 303 | 7.8 | 10.4 | 0.01 | 0.01 | 0.01 | 84 | 1010.2 |
| 20260508223057 | 59 | 279 | 7.0 | 10.4 | 0.00 | 0.00 | 0.00 | 76 | 1010.2 |
| 20260508221603 | 60 | 195 | 2.6 | 5.2 | 0.00 | 0.00 | 0.00 | 70 | 1009.5 |
| 20260508220056 | 61 | 212 | 2.6 | 4.3 | 0.00 | 0.00 | 0.00 | 66 | 1009.1 |
| 20260508214555 | 61 | 200 | 1.7 | 3.5 | 0.00 | 0.00 | 0.00 | 66 | 1009.0 |
| 20260508213113 | 61 | 241 | 0.0 | 3.5 | 0.00 | 0.00 | 0.00 | 66 | 1009.1 |
| 20260508211552 | 61 | 254 | 0.9 | 2.6 | 0.00 | 0.00 | 0.00 | 63 | 1009.3 |
| 20260508210051 | 62 | 250 | 0.9 | 4.3 | 0.00 | 0.00 | 0.00 | 62 | 1009.6 |
| 20260508204551 | 62 | 266 | 4.3 | 7.8 | 0.00 | 0.00 | 0.00 | 61 | 1009.7 |
| 20260508203102 | 62 | 211 | 3.5 | 9.6 | 0.00 | 0.00 | 0.00 | 60 | 1009.8 |
| 20260508201545 | 62 | 218 | 3.5 | 11.3 | 0.00 | 0.00 | 0.00 | 60 | 1010.2 |
| 20260508200051 | 62 | 227 | 7.0 | 14.8 | 0.00 | 0.00 | 0.00 | 58 | 1010.4 |
| 20260508194543 | 62 | 230 | 5.2 | 14.8 | 0.00 | 0.00 | 0.00 | 58 | 1010.5 |
| 20260508193115 | 62 | 201 | 4.3 | 19.1 | 0.00 | 0.00 | 0.00 | 58 | 1010.4 |
| 20260508191542 | 63 | 226 | 8.7 | 16.5 | 0.00 | 0.00 | 0.00 | 57 | 1010.4 |
| 20260508190040 | 63 | 176 | 8.7 | 14.8 | 0.00 | 0.00 | 0.00 | 58 | 1010.8 |
| 20260508184546 | 63 | 249 | 6.1 | 18.2 | 0.00 | 0.00 | 0.00 | 59 | 1010.9 |
| 20260508183041 | 64 | 202 | 9.6 | 14.8 | 0.00 | 0.00 | 0.00 | 56 | 1011.0 |
| 20260508181537 | 65 | 216 | 7.0 | 22.6 | 0.00 | 0.00 | 0.00 | 55 | 1011.0 |
| 20260508180034 | 65 | 243 | 12.2 | 20.0 | 0.00 | 0.00 | 0.00 | 56 | 1011.0 |
| 20260508174548 | 64 | 190 | 12.2 | 20.0 | 0.00 | 0.00 | 0.00 | 61 | 1011.2 |
| 20260508173030 | 63 | 241 | 8.7 | 20.0 | 0.00 | 0.00 | 0.00 | 59 | 1011.5 |
| 20260508171528 | 62 | 239 | 4.3 | 13.9 | 0.00 | 0.00 | 0.00 | 61 | 1011.8 |
| 20260508170022 | 61 | 178 | 3.5 | 11.3 | 0.00 | 0.00 | 0.00 | 63 | 1012.1 |
| 20260508164528 | 61 | 221 | 6.1 | 16.5 | 0.00 | 0.00 | 0.00 | 59 | 1012.4 |
| 20260508163023 | 62 | 160 | 7.0 | 16.5 | 0.00 | 0.00 | 0.00 | 57 | 1012.4 |
| 20260508161535 | 62 | 237 | 6.1 | 14.8 | 0.00 | 0.00 | 0.00 | 59 | 1012.8 |
| 20260508160017 | 61 | 274 | 5.2 | 12.2 | 0.00 | 0.00 | 0.00 | 60 | 1012.9 |
| 20260508154516 | 62 | 257 | 5.2 | 12.2 | 0.00 | 0.00 | 0.00 | 61 | 1012.9 |
| 20260508153012 | 61 | 227 | 7.0 | 11.3 | 0.00 | 0.00 | 0.00 | 63 | 1012.8 |
| 20260508151523 | 60 | 232 | 8.7 | 15.6 | 0.00 | 0.00 | 0.00 | 62 | 1012.7 |
| 20260508150012 | 59 | 205 | 7.8 | 18.2 | 0.00 | 0.00 | 0.00 | 65 | 1012.8 |
| 20260508144505 | 58 | 275 | 7.8 | 15.6 | 0.00 | 0.00 | 0.00 | 63 | 1013.2 |
| 20260508143001 | 57 | 228 | 6.1 | 12.2 | 0.00 | 0.00 | 0.00 | 64 | 1013.3 |
| 20260508141557 | 57 | 243 | 5.2 | 10.4 | 0.00 | 0.00 | 0.00 | 65 | 1013.4 |
| 20260508140056 | 56 | 247 | 7.0 | 12.2 | 0.00 | 0.00 | 0.00 | 65 | 1013.5 |
| 20260508134600 | 55 | 226 | 7.0 | 11.3 | 0.00 | 0.00 | 0.00 | 66 | 1013.5 |
| 20260508133102 | 53 | 212 | 5.2 | 7.8 | 0.00 | 0.00 | 0.00 | 69 | 1013.4 |
| 20260508131540 | 52 | 241 | 3.5 | 7.0 | 0.00 | 0.00 | 0.00 | 73 | 1013.7 |
| 20260508130036 | 50 | 253 | 2.6 | 7.0 | 0.00 | 0.00 | 0.00 | 74 | 1013.7 |
| 20260508124534 | 48 | 253 | 2.6 | 3.5 | 0.00 | 0.00 | 0.00 | 76 | 1013.9 |
| 20260508123031 | 48 | 257 | 0.9 | 3.5 | 0.00 | 0.00 | 0.00 | 78 | 1013.7 |
| 20260508121532 | 47 | 216 | 1.7 | 4.3 | 0.00 | 0.00 | 0.00 | 78 | 1013.8 |
| 20260508120027 | 47 | 203 | 0.9 | 3.5 | 0.00 | 0.00 | 0.00 | 80 | 1013.6 |
| 20260508114527 | 45 | 194 | 0.9 | 6.1 | 0.00 | 0.01 | 0.00 | 82 | 1013.6 |
| 20260508113028 | 45 | 199 | 3.5 | 4.3 | 0.00 | 0.01 | 0.00 | 80 | 1013.3 |
| 20260508111518 | 47 | 278 | 1.7 | 3.5 | 0.00 | 0.01 | 0.00 | 77 | 1013.3 |
| 20260508110018 | 47 | 215 | 0.9 | 3.5 | 0.00 | 0.01 | 0.00 | 76 | 1013.1 |
| 20260508104515 | 46 | 225 | 0.9 | 5.2 | 0.00 | 0.01 | 0.00 | 76 | 1012.9 |
| 20260508103014 | 46 | 183 | 2.6 | 5.2 | 0.00 | 0.01 | 0.00 | 77 | 1012.8 |
| 20260508101515 | 46 | 207 | 3.5 | 6.1 | 0.00 | 0.01 | 0.00 | 75 | 1012.8 |
| 20260508100012 | 48 | 237 | 1.7 | 4.3 | 0.00 | 0.01 | 0.00 | 73 | 1012.9 |
| 20260508094512 | 48 | 234 | 0.0 | 4.3 | 0.00 | 0.01 | 0.00 | 71 | 1012.9 |
| 20260508093011 | 49 | 226 | 0.9 | 5.2 | 0.00 | 0.01 | 0.00 | 71 | 1012.9 |
| 20260508091522 | 49 | 199 | 2.6 | 5.2 | 0.00 | 0.01 | 0.00 | 70 | 1012.9 |
| 20260508090014 | 48 | 249 | 2.6 | 6.1 | 0.00 | 0.01 | 0.00 | 70 | 1013.1 |
| 20260508084508 | 48 | 236 | 0.9 | 3.5 | 0.00 | 0.01 | 0.00 | 70 | 1013.2 |
| 20260508083016 | 48 | 205 | 2.6 | 5.2 | 0.00 | 0.01 | 0.00 | 71 | 1013.1 |
| 20260508081509 | 48 | 228 | 0.0 | 4.3 | 0.00 | 0.01 | 0.00 | 68 | 1013.2 |
| 20260508080006 | 48 | 260 | 0.0 | 5.2 | 0.00 | 0.01 | 0.00 | 69 | 1013.2 |
| 20260508074505 | 48 | 253 | 0.9 | 6.1 | 0.00 | 0.01 | 0.00 | 71 | 1013.1 |
| 20260508073001 | 47 | 214 | 1.7 | 6.1 | 0.00 | 0.01 | 0.00 | 72 | 1013.1 |
| 20260508071600 | 47 | 207 | 1.7 | 6.1 | 0.00 | 0.01 | 0.00 | 73 | 1013.2 |
| 20260508070101 | 47 | 229 | 1.7 | 5.2 | 0.00 | 0.01 | 0.00 | 72 | 1013.4 |
| 20260508064557 | 47 | 224 | 1.7 | 6.1 | 0.00 | 0.01 | 0.00 | 73 | 1013.4 |
| 20260508063138 | 47 | 220 | 1.7 | 5.2 | 0.00 | 0.01 | 0.00 | 73 | 1013.5 |
| 20260508061556 | 47 | 199 | 2.6 | 5.2 | 0.00 | 0.01 | 0.00 | 73 | 1013.5 |
| 20260508060057 | 47 | 211 | 2.6 | 4.3 | 0.00 | 0.01 | 0.00 | 73 | 1013.6 |
| 20260508054555 | 47 | 208 | 1.7 | 6.1 | 0.00 | 0.01 | 0.00 | 73 | 1013.5 |
| 20260508053100 | 47 | 229 | 1.7 | 3.5 | 0.00 | 0.01 | 0.00 | 74 | 1013.6 |
| 20260508051617 | 47 | 225 | 1.7 | 6.1 | 0.00 | 0.01 | 0.00 | 74 | 1013.7 |
| 20260508050055 | 47 | 212 | 0.9 | 5.2 | 0.00 | 0.01 | 0.00 | 74 | 1013.7 |